Вернуться в каталог

FENGYUN 1C DEB

АктивенSSO
NORAD 36207·DEBRIS·🇨🇳 China

Запущен May 10, 1999 с Taiyuan Satellite Launch Center

Loading…

Ближайшие Пролёты (ближайшие 24 часа)

TLE

УстаревающийSource: Space-Track

Эпоха: Sep 9, 2026, 11:25 UTC

1 36207U 99025DUG 26252.47588000  .00001756  00000-0  10395-2 0  9991
2 36207  98.5875 127.2942 0139310 281.9197  76.6381 14.04186463637636

Отслеживайте FENGYUN 1C DEB в реальном времени с AllMySat

Download on the App Store